QPF
0.00 0.00 0.00 0.00 0.00 0.00 0.00 0.00 0.00 0.00 0.00 0.00 0.00 0.00 0.00 0.00 0.00 0.00 0.00 0.00 0.00 0.00 0.00 0.00 0.00 0.00 0.00 0.00 0.00 0.00 0.00 0.00 0.00 0.00 0.00 0.00 0.01 0.04 0.01 0.00 0.00 0.00 0.02 0.00 0.00
0.00 0.00 0.00 0.00 0.00 0.00 0.00 0.00 0.00 0.00 0.00 0.00 0.00 0.00 0.00 0.00 0.00 0.00 0.00 0.00 0.00 0.00 0.00 0.00 0.00 0.00 0.00 0.00 0.00 0.00 0.00 0.00 0.00 0.00 0.00 0.00 0.01 0.00 0.00 0.00 0.00 0.00 0.01 0.00 0.00
0.00 0.00 0.00 0.00 0.00 0.00 0.00 0.00 0.00 0.00 0.00 0.00 0.00 0.00 0.00 0.00 0.00 0.00 0.00 0.00 0.00 0.00 0.00 0.00 0.00 0.00 0.00 0.00 0.00 0.00 0.00 0.00 0.00 0.00 0.00 0.00 0.00 0.00 0.00 0.00 0.00 0.00 0.00 0.00 0.00
0.00 0.00 0.00 0.00 0.00 0.00 0.00 0.00 0.00 0.00 0.00 0.00 0.00 0.00 0.00 0.00 0.00 0.00 0.00 0.00 0.00 0.00 0.00 0.00 0.00 0.00 0.00 0.00 0.00 0.00 0.00 0.00 0.00 0.00 0.00 0.00 0.00 0.00 0.00 0.00 0.00 0.00 0.00 0.00 0.00
0.00 0.00 0.00 0.00 0.00 0.00 0.00 0.00 0.00 0.00 0.00 0.00 0.00 0.00 0.00 0.00 0.00 0.00 0.00 0.00 0.00 0.00 0.00 0.00 0.00 0.00 0.00 0.00 0.00 0.00 0.00 0.00 0.00 0.00 0.00 0.00 0.00 0.00 0.00 0.00 0.00 0.00 0.00 0.00 0.00
0.00 0.00 0.00 0.00 0.00 0.00 0.00 0.00 0.00 0.00 0.00 0.00 0.00 0.00 0.00 0.00 0.00 0.00 0.00 0.00 0.00 0.00 0.00 0.00 0.00 0.00 0.00 0.00 0.00 0.00 0.00 0.00 0.00 0.00 0.00 0.00 0.00 0.00 0.00 0.00 0.00 0.00 0.01 0.02 0.00
0.00 0.00 0.00 0.00 0.00 0.00 0.00 0.00 0.00 0.00 0.00 0.00 0.00 0.00 0.00 0.00 0.00 0.00 0.00 0.00 0.00 0.00 0.00 0.00 0.00 0.00 0.00 0.00 0.00 0.00 0.00 0.00 0.00 0.00 0.00 0.00 0.00 0.00 0.01 0.00 0.00 0.00 0.01 0.01 0.00
0.00 0.00 0.00 0.00 0.00 0.00 0.00 0.00 0.00 0.00 0.00 0.00 0.00 0.00 0.00 0.00 0.00 0.00 0.00 0.00 0.00 0.00 0.00 0.00 0.00 0.00 0.00 0.00 0.00 0.00 0.00 0.00 0.00 0.00 0.00 0.00 0.00 0.00 0.04 0.03 0.01 0.00 0.01 0.01 0.00
0.00 0.00 0.00 0.00 0.00 0.00 0.00 0.00 0.00 0.00 0.00 0.00 0.00 0.00 0.00 0.00 0.00 0.00 0.00 0.00 0.00 0.00 0.00 0.00 0.00 0.00 0.00 0.00 0.00 0.00 0.00 0.00 0.00 0.00 0.00 0.00 0.00 0.00 0.02 0.08 0.06 0.00 0.00 0.00 0.00
0.00 0.00 0.00 0.00 0.00 0.00 0.00 0.00 0.00 0.00 0.00 0.00 0.00 0.00 0.00 0.00 0.00 0.00 0.00 0.00 0.00 0.00 0.00 0.00 0.00 0.00 0.00 0.00 0.00 0.00 0.00 0.00 0.00 0.00 0.00 0.00 0.00 0.00 0.01 0.01 0.01 0.00 0.00 0.00 0.00
0.00 0.00 0.00 0.00 0.00 0.00 0.00 0.00 0.00 0.00 0.00 0.00 0.00 0.00 0.00 0.00 0.00 0.00 0.00 0.00 0.00 0.00 0.00 0.00 0.00 0.00 0.00 0.00 0.00 0.00 0.00 0.00 0.00 0.00 0.00 0.00 0.00 0.01 0.01 0.00 0.00 0.00 0.00 0.00 0.00
0.00 0.00 0.00 0.00 0.00 0.00 0.00 0.00 0.00 0.00 0.00 0.00 0.00 0.00 0.00 0.00 0.00 0.00 0.00 0.00 0.00 0.00 0.00 0.00 0.00 0.00 0.00 0.00 0.00 0.00 0.00 0.00 0.00 0.00 0.00 0.01 0.00 0.00 0.00 0.00 0.00 0.00 0.00 0.00 0.00
0.00 0.00 0.00 0.00 0.00 0.00 0.00 0.00 0.00 0.00 0.00 0.00 0.00 0.00 0.00 0.00 0.00 0.00 0.00 0.00 0.00 0.00 0.00 0.00 0.00 0.00 0.00 0.00 0.00 0.00 0.00 0.00 0.00 0.00 0.00 0.00 0.00 0.00 0.00 0.00 0.00 0.00 0.00 0.00 0.00
0.00 0.00 0.00 0.00 0.00 0.00 0.00 0.00 0.00 0.00 0.00 0.00 0.00 0.00 0.00 0.00 0.00 0.00 0.00 0.00 0.00 0.00 0.00 0.00 0.00 0.00 0.00 0.00 0.00 0.00 0.00 0.00 0.00 0.00 0.00 0.00 0.00 0.00 0.00 0.00 0.00 0.00 0.00 0.00 0.00
0.00 0.00 0.00 0.00 0.00 0.00 0.00 0.00 0.00 0.00 0.00 0.00 0.00 0.00 0.00 0.00 0.00 0.00 0.00 0.00 0.00 0.00 0.00 0.00 0.00 0.00 0.00 0.00 0.00 0.00 0.00 0.00 0.00 0.00 0.00 0.00 0.00 0.00 0.00 0.00 0.00 0.00 0.00 0.00 0.00
0.00 0.00 0.00 0.00 0.00 0.00 0.00 0.00 0.00 0.00 0.00 0.00 0.00 0.00 0.00 0.00 0.00 0.00 0.00 0.00 0.00 0.00 0.00 0.00 0.00 0.00 0.00 0.00 0.00 0.00 0.00 0.00 0.00 0.00 0.00 0.00 0.00 0.00 0.00 0.00 0.00 0.00 0.00 0.00 0.00
0.00 0.00 0.00 0.00 0.00 0.00 0.00 0.00 0.00 0.00 0.00 0.00 0.00 0.00 0.00 0.00 0.00 0.00 0.00 0.00 0.00 0.00 0.00 0.00 0.00 0.00 0.00 0.00 0.00 0.00 0.00 0.00 0.00 0.00 0.00 0.00 0.00 0.00 0.00 0.00 0.00 0.00 0.00 0.00 0.01
0.00 0.00 0.00 0.00 0.00 0.00 0.00 0.00 0.00 0.00 0.00 0.00 0.00 0.00 0.00 0.00 0.00 0.00 0.00 0.00 0.00 0.00 0.00 0.00 0.00 0.00 0.00 0.00 0.00 0.00 0.00 0.00 0.00 0.00 0.00 0.00 0.00 0.00 0.00 0.00 0.00 0.00 0.00 0.00 0.01
0.00 0.00 0.00 0.00 0.00 0.00 0.00 0.00 0.00 0.00 0.00 0.00 0.00 0.00 0.00 0.00 0.00 0.00 0.00 0.00 0.00 0.00 0.00 0.00 0.00 0.00 0.00 0.00 0.00 0.00 0.00 0.00 0.00 0.00 0.00 0.00 0.00 0.00 0.00 0.00 0.00 0.00 0.00 0.00 0.00
0.00 0.00 0.00 0.00 0.00 0.00 0.00 0.00 0.00 0.00 0.00 0.00 0.00 0.00 0.00 0.00 0.00 0.00 0.00 0.00 0.00 0.00 0.00 0.00 0.00 0.00 0.00 0.00 0.00 0.00 0.00 0.00 0.00 0.00 0.00 0.00 0.00 0.00 0.00 0.00 0.00 0.00 0.00 0.00 0.00
0.00 0.00 0.00 0.00 0.00 0.00 0.00 0.00 0.00 0.00 0.00 0.00 0.00 0.00 0.00 0.00 0.00 0.00 0.00 0.00 0.00 0.00 0.00 0.00 0.00 0.00 0.00 0.00 0.00 0.00 0.00 0.00 0.00 0.00 0.00 0.00 0.00 0.00 0.00 0.00 0.00 0.00 0.00 0.00 0.00
0.00 0.00 0.00 0.00 0.00 0.00 0.00 0.00 0.00 0.00 0.00 0.00 0.00 0.00 0.00 0.00 0.00 0.00 0.00 0.00 0.00 0.00 0.00 0.00 0.00 0.00 0.00 0.00 0.00 0.00 0.00 0.00 0.00 0.00 0.00 0.00 0.00 0.00 0.00 0.00 0.01 0.00 0.00 0.00 0.00
0.00 0.00 0.00 0.00 0.00 0.00 0.00 0.00 0.00 0.00 0.00 0.00 0.00 0.00 0.00 0.00 0.00 0.00 0.00 0.00 0.00 0.00 0.00 0.00 0.00 0.00 0.00 0.00 0.00 0.00 0.00 0.00 0.00 0.00 0.00 0.00 0.00 0.00 0.00 0.00 0.00 0.00 0.01 0.00 0.00
0.00 0.00 0.00 0.00 0.00 0.00 0.00 0.00 0.00 0.00 0.00 0.00 0.00 0.00 0.00 0.00 0.00 0.00 0.00 0.00 0.00 0.00 0.00 0.00 0.00 0.00 0.00 0.00 0.00 0.00 0.00 0.00 0.00 0.00 0.00 0.00 0.00 0.00 0.00 0.00 0.00 0.00 0.01 0.00 0.00
0.00 0.00 0.00 0.00 0.00 0.00 0.00 0.00 0.00 0.00 0.00 0.00 0.00 0.00 0.00 0.00 0.00 0.00 0.00 0.00 0.00 0.00 0.00 0.00 0.00 0.00 0.00 0.00 0.00 0.00 0.00 0.00 0.00 0.00 0.00 0.00 0.00 0.00 0.00 0.00 0.00 0.00 0.00 0.00 0.00
0.00 0.00 0.00 0.00 0.00 0.00 0.00 0.00 0.00 0.00 0.00 0.00 0.00 0.00 0.00 0.00 0.00 0.00 0.00 0.00 0.00 0.00 0.00 0.00 0.00 0.00 0.00 0.00 0.00 0.00 0.00 0.00 0.00 0.00 0.00 0.00 0.00 0.00 0.00 0.00 0.00 0.00 0.00 0.00 0.00
0.00 0.00 0.00 0.00 0.00 0.00 0.00 0.00 0.00 0.00 0.00 0.00 0.00 0.00 0.00 0.00 0.00 0.00 0.00 0.00 0.00 0.00 0.00 0.00 0.00 0.00 0.00 0.00 0.00 0.00 0.00 0.00 0.00 0.00 0.00 0.00 0.00 0.00 0.00 0.00 0.00 0.00 0.00 0.00 0.00
MSLP
1017.32 1017.10 1016.89 1016.63 1016.30 1015.98 1015.69 1015.56 1015.33 1015.02 1014.84 1014.57 1014.29 1013.96 1013.53 1013.10 1012.30 1012.08 1010.96 1008.55 1008.27 1008.36 1008.60 1008.64 1008.81 1008.93 1008.97 1009.26 1009.13 1009.57 1010.68 1010.99 1010.56 1010.32 1009.50 1009.30 1009.32 1009.57 1009.18 1009.37 1009.40 1009.48 1009.85 1010.32 1011.77
1017.33 1017.09 1016.88 1016.65 1016.35 1016.00 1015.77 1015.55 1015.29 1015.07 1014.83 1014.46 1014.19 1013.90 1013.52 1013.14 1012.57 1010.95 1007.96 1007.67 1007.66 1008.22 1008.57 1008.66 1008.70 1008.61 1008.88 1008.99 1008.85 1009.20 1009.98 1009.76 1009.19 1009.23 1009.02 1008.79 1008.93 1009.23 1009.40 1009.45 1009.42 1009.68 1009.99 1010.71 1011.81
1017.43 1017.12 1016.86 1016.57 1016.30 1016.08 1015.82 1015.60 1015.32 1015.07 1014.79 1014.48 1014.15 1013.77 1013.45 1013.21 1012.19 1008.69 1007.08 1007.30 1007.54 1008.05 1008.61 1008.68 1008.66 1008.70 1009.06 1008.88 1008.56 1008.53 1008.67 1008.51 1008.45 1008.24 1008.31 1008.44 1008.86 1009.03 1009.30 1009.49 1009.36 1009.47 1010.21 1011.25 1012.15
1017.40 1017.14 1016.81 1016.50 1016.24 1016.03 1015.81 1015.56 1015.32 1015.06 1014.76 1014.46 1014.13 1013.73 1013.38 1013.05 1010.88 1007.41 1007.07 1007.05 1007.46 1008.14 1008.56 1008.69 1008.80 1009.10 1009.36 1008.99 1008.25 1008.05 1007.58 1007.65 1007.61 1007.78 1007.82 1008.19 1008.44 1008.83 1009.01 1008.88 1008.97 1009.41 1009.65 1010.93 1011.85
1017.40 1017.08 1016.77 1016.48 1016.14 1015.85 1015.60 1015.36 1015.14 1014.95 1014.67 1014.39 1014.07 1013.79 1013.30 1012.39 1009.61 1007.24 1007.18 1007.10 1007.60 1008.25 1008.58 1008.78 1008.97 1009.24 1009.32 1008.82 1008.17 1007.55 1007.36 1006.98 1006.77 1006.98 1007.30 1007.88 1008.21 1008.52 1008.85 1008.89 1009.35 1009.82 1010.40 1010.97 1011.55
1017.24 1016.89 1016.59 1016.28 1015.99 1015.71 1015.45 1015.16 1014.92 1014.69 1014.44 1014.19 1013.99 1013.82 1013.30 1011.27 1007.62 1007.27 1007.46 1007.74 1007.63 1008.08 1008.42 1008.62 1008.79 1008.89 1009.06 1008.78 1008.36 1007.49 1007.15 1006.77 1006.95 1006.96 1007.37 1007.86 1008.32 1008.56 1008.92 1009.14 1009.59 1009.98 1010.52 1010.93 1011.19
1017.07 1016.74 1016.40 1016.12 1015.79 1015.41 1015.13 1014.92 1014.66 1014.41 1014.19 1014.06 1013.89 1013.72 1012.74 1009.21 1007.67 1007.61 1007.65 1007.80 1007.85 1007.68 1008.21 1008.34 1008.48 1008.83 1008.87 1008.66 1007.90 1007.51 1007.26 1006.80 1006.96 1007.19 1007.42 1007.83 1008.57 1008.57 1008.97 1009.44 1009.78 1010.05 1010.30 1010.78 1010.94
1016.97 1016.55 1016.16 1015.85 1015.55 1015.19 1014.84 1014.48 1014.23 1014.02 1013.85 1013.74 1013.70 1013.58 1011.40 1008.06 1007.70 1007.66 1007.78 1007.74 1007.64 1007.80 1007.96 1007.95 1008.20 1008.58 1008.77 1008.41 1008.14 1007.90 1007.74 1007.74 1007.10 1006.97 1007.13 1007.90 1008.31 1008.65 1009.03 1009.88 1010.37 1010.17 1010.10 1010.29 1010.55
1016.79 1016.40 1016.00 1015.65 1015.32 1014.92 1014.47 1014.01 1013.54 1013.37 1013.52 1013.56 1013.70 1013.11 1010.24 1007.68 1007.68 1007.12 1007.40 1007.63 1007.68 1007.81 1007.95 1007.92 1008.08 1008.81 1008.98 1009.32 1009.37 1009.23 1008.95 1008.51 1007.75 1007.28 1007.17 1008.11 1008.65 1009.53 1009.43 1009.50 1009.49 1009.99 1009.96 1009.69 1009.72
1016.53 1016.15 1015.77 1015.46 1015.11 1014.71 1014.12 1013.51 1013.25 1013.27 1013.41 1013.39 1012.93 1012.63 1009.22 1007.46 1006.87 1006.69 1006.89 1007.39 1007.76 1007.97 1008.06 1008.16 1009.04 1009.60 1010.17 1010.36 1010.51 1010.12 1009.74 1008.95 1008.43 1007.47 1007.64 1008.11 1008.83 1009.47 1009.18 1008.82 1008.11 1008.16 1008.46 1008.96 1008.78
1016.22 1015.85 1015.49 1015.18 1014.93 1014.68 1014.09 1013.52 1013.65 1013.25 1012.73 1011.21 1010.58 1009.85 1008.22 1006.96 1006.38 1006.53 1006.70 1007.42 1007.97 1008.30 1008.76 1009.09 1009.85 1010.23 1010.10 1010.15 1009.95 1009.96 1009.78 1009.34 1007.70 1007.22 1007.92 1008.41 1008.93 1009.16 1008.78 1008.60 1008.17 1007.83 1008.15 1008.30 1008.07
1015.86 1015.48 1015.15 1014.90 1014.73 1014.66 1014.73 1013.63 1011.33 1010.76 1010.67 1009.52 1009.29 1008.93 1007.85 1007.33 1007.03 1006.29 1006.47 1007.42 1008.03 1008.59 1009.12 1009.80 1009.73 1009.01 1009.15 1009.36 1009.55 1009.60 1009.45 1008.64 1007.64 1006.93 1007.12 1007.91 1008.02 1008.09 1008.40 1007.85 1007.91 1008.39 1008.16 1007.95 1008.39
1015.45 1015.06 1014.77 1014.58 1014.43 1014.55 1014.03 1012.05 1010.24 1010.14 1010.32 1008.65 1008.31 1007.86 1007.07 1007.04 1006.82 1006.20 1006.39 1006.98 1007.70 1008.52 1009.06 1009.48 1008.37 1008.33 1008.78 1008.80 1009.14 1008.74 1009.02 1008.11 1007.36 1007.21 1007.71 1008.35 1008.77 1008.72 1008.39 1008.13 1007.97 1008.32 1008.28 1008.14 1008.02
1014.98 1014.59 1014.33 1014.18 1014.68 1013.67 1012.68 1010.56 1010.12 1010.53 1010.39 1008.16 1007.35 1005.95 1006.20 1006.26 1006.24 1005.55 1005.84 1006.52 1007.44 1008.01 1008.93 1008.96 1007.81 1008.01 1008.11 1008.25 1008.06 1008.24 1007.44 1007.41 1007.22 1008.05 1008.74 1008.99 1009.34 1008.38 1008.05 1008.00 1007.81 1007.61 1007.81 1007.77 1008.07
1014.34 1014.07 1013.95 1014.02 1013.91 1013.00 1010.76 1010.40 1010.01 1010.06 1009.21 1006.88 1006.08 1004.84 1005.23 1005.80 1005.54 1005.40 1005.37 1005.99 1006.89 1007.61 1008.41 1007.95 1007.61 1007.53 1007.63 1007.20 1007.28 1007.09 1006.90 1007.53 1008.17 1008.73 1009.43 1009.59 1009.99 1007.85 1007.79 1007.41 1006.76 1006.45 1007.13 1007.01 1007.34
1013.70 1013.40 1013.50 1013.77 1013.69 1011.21 1010.33 1010.25 1010.17 1010.07 1007.98 1006.08 1005.21 1005.11 1005.46 1005.43 1005.45 1005.48 1005.78 1006.03 1006.51 1007.40 1007.87 1007.44 1006.84 1006.65 1006.06 1005.75 1006.18 1006.66 1007.51 1008.54 1009.38 1009.99 1010.19 1009.75 1010.09 1007.87 1007.32 1006.28 1005.98 1005.64 1005.98 1006.36 1006.67
1012.93 1012.70 1013.05 1012.45 1011.38 1010.10 1010.17 1010.34 1010.34 1009.04 1007.05 1005.90 1005.19 1005.15 1005.28 1005.56 1005.59 1005.72 1006.19 1006.65 1007.13 1007.85 1008.13 1007.36 1006.36 1005.43 1005.17 1005.57 1005.75 1006.83 1008.43 1009.57 1010.49 1011.28 1011.12 1010.15 1009.87 1007.12 1006.07 1005.50 1005.28 1004.96 1005.16 1005.58 1005.99
1011.96 1011.82 1011.96 1011.22 1010.39 1010.18 1009.97 1010.44 1009.89 1008.23 1006.82 1005.29 1005.00 1005.46 1005.89 1005.97 1006.00 1006.00 1006.38 1007.07 1007.32 1007.78 1008.38 1007.84 1006.39 1005.18 1004.83 1004.88 1005.20 1006.41 1007.67 1009.43 1010.86 1011.85 1011.14 1010.25 1009.17 1006.13 1005.34 1004.93 1004.78 1004.30 1004.31 1004.59 1005.16
1011.84 1011.95 1011.76 1009.93 1010.11 1010.82 1010.69 1010.79 1009.38 1007.90 1006.35 1005.41 1005.17 1005.87 1006.11 1005.82 1006.03 1006.23 1006.69 1006.87 1006.96 1007.26 1007.98 1007.70 1006.52 1004.89 1004.38 1004.06 1004.63 1006.17 1007.29 1008.09 1009.91 1011.46 1011.40 1010.28 1008.38 1005.95 1005.90 1005.61 1004.88 1004.38 1004.44 1004.51 1004.39
1011.77 1011.37 1010.42 1009.35 1009.63 1010.19 1010.88 1010.73 1009.14 1007.52 1006.24 1005.45 1005.59 1005.82 1006.30 1006.35 1006.35 1006.49 1006.51 1005.99 1006.27 1006.13 1006.25 1007.11 1006.78 1004.69 1003.89 1003.73 1004.27 1004.90 1006.44 1008.39 1010.03 1011.26 1011.52 1010.34 1009.37 1008.46 1006.91 1006.53 1005.16 1005.00 1004.74 1004.57 1004.53
1011.49 1011.05 1009.82 1009.33 1009.48 1010.62 1011.28 1010.32 1008.49 1006.52 1005.82 1005.61 1005.82 1006.11 1006.62 1006.85 1006.78 1006.61 1006.39 1005.98 1006.15 1005.67 1005.88 1006.85 1007.11 1005.42 1004.61 1004.69 1004.91 1005.58 1006.65 1008.32 1009.78 1010.80 1011.31 1010.98 1009.77 1008.58 1007.82 1006.77 1005.80 1005.61 1005.19 1004.38 1004.60
1011.75 1011.60 1010.15 1009.90 1010.61 1011.68 1011.26 1009.79 1008.19 1006.79 1005.80 1005.59 1005.88 1006.40 1006.74 1006.97 1007.10 1006.86 1006.77 1006.52 1006.35 1006.05 1006.56 1006.69 1007.13 1006.98 1005.85 1005.07 1004.97 1005.26 1006.42 1007.84 1009.74 1010.97 1011.19 1010.97 1009.33 1007.82 1007.39 1006.67 1005.94 1005.73 1005.50 1005.38 1004.98
1012.91 1012.23 1010.35 1010.10 1011.49 1011.99 1010.87 1009.66 1008.48 1007.57 1006.98 1006.52 1007.01 1007.19 1007.37 1007.82 1007.96 1007.66 1007.50 1006.98 1007.02 1006.61 1006.88 1006.74 1007.39 1007.42 1006.59 1006.31 1005.63 1005.80 1006.52 1007.66 1008.88 1009.98 1010.74 1010.79 1008.85 1007.21 1006.98 1006.12 1005.41 1005.48 1005.32 1005.37 1005.23
1013.37 1013.26 1012.35 1011.93 1012.40 1012.39 1011.84 1010.49 1009.15 1008.00 1007.93 1007.83 1008.22 1007.95 1008.24 1008.72 1008.81 1008.71 1008.25 1007.58 1007.50 1007.48 1007.06 1006.94 1007.90 1007.81 1007.38 1006.78 1006.37 1006.44 1006.66 1007.49 1008.51 1009.73 1010.12 1009.67 1008.59 1007.23 1006.49 1005.95 1004.81 1004.57 1004.72 1005.02 1005.31
1014.28 1015.38 1015.09 1014.16 1013.53 1013.28 1012.45 1011.34 1010.28 1009.36 1008.75 1008.67 1009.01 1009.23 1009.36 1009.62 1009.60 1009.51 1009.34 1008.88 1008.05 1008.08 1007.79 1008.30 1008.75 1008.35 1007.55 1007.10 1006.54 1006.25 1006.44 1007.16 1007.91 1008.31 1008.83 1008.42 1008.51 1007.08 1006.22 1005.71 1005.14 1004.51 1004.54 1004.99 1004.92
1016.09 1016.48 1015.75 1015.25 1014.51 1013.74 1013.14 1012.46 1011.40 1010.37 1009.85 1009.96 1009.89 1009.67 1009.65 1009.86 1010.00 1010.07 1009.92 1009.90 1009.54 1009.01 1009.25 1009.50 1009.50 1009.33 1008.57 1007.55 1007.03 1006.52 1006.43 1006.79 1007.49 1008.02 1008.38 1008.34 1008.14 1006.54 1005.60 1005.45 1005.19 1004.64 1004.81 1004.83 1004.64
1017.16 1016.92 1016.69 1016.22 1015.36 1014.65 1014.08 1013.17 1012.21 1011.45 1010.65 1010.31 1010.23 1010.09 1009.87 1009.65 1009.61 1009.54 1009.50 1009.58 1009.56 1009.83 1010.11 1010.36 1010.27 1010.50 1009.86 1008.45 1007.46 1007.12 1006.57 1006.66 1007.35 1008.21 1008.64 1008.92 1008.33 1007.46 1006.88 1006.45 1005.65 1005.25 1005.10 1005.34 1004.98
Thickness
5744 5746 5748 5751 5754 5757 5760 5762 5764 5768 5770 5773 5776 5780 5784 5789 5796 5798 5799 5824 5829 5830 5828 5824 5820 5817 5817 5805 5810 5804 5760 5751 5765 5763 5778 5796 5790 5793 5802 5792 5797 5800 5794 5797 5789
5743 5745 5748 5752 5755 5758 5761 5763 5766 5769 5772 5775 5779 5782 5786 5790 5795 5800 5834 5836 5837 5832 5823 5815 5808 5813 5800 5800 5803 5788 5760 5767 5788 5787 5784 5797 5792 5789 5788 5786 5788 5791 5799 5797 5789
5744 5746 5749 5753 5756 5758 5761 5764 5768 5771 5774 5777 5781 5785 5788 5791 5796 5815 5842 5840 5838 5833 5826 5821 5817 5810 5792 5797 5798 5793 5773 5791 5793 5800 5801 5797 5789 5794 5781 5776 5787 5783 5786 5785 5779
5747 5748 5751 5755 5758 5761 5764 5767 5770 5773 5776 5779 5782 5786 5790 5793 5779 5834 5843 5843 5839 5833 5825 5816 5808 5794 5784 5782 5801 5787 5801 5801 5802 5803 5802 5792 5797 5787 5788 5791 5798 5796 5796 5786 5779
5749 5751 5754 5757 5761 5764 5767 5770 5773 5776 5778 5781 5784 5786 5792 5790 5801 5841 5843 5844 5839 5830 5817 5810 5799 5792 5780 5786 5793 5794 5798 5808 5809 5808 5805 5801 5792 5790 5787 5796 5797 5795 5790 5785 5781
5751 5754 5757 5760 5763 5767 5770 5773 5776 5778 5781 5784 5785 5786 5790 5782 5837 5841 5840 5838 5836 5827 5818 5813 5804 5804 5790 5786 5787 5800 5801 5804 5804 5803 5803 5792 5788 5792 5790 5795 5791 5789 5783 5784 5783
5752 5755 5758 5761 5765 5769 5772 5774 5777 5780 5783 5784 5786 5788 5788 5802 5837 5838 5838 5833 5834 5831 5816 5819 5816 5801 5796 5784 5804 5800 5788 5798 5798 5800 5794 5797 5777 5779 5790 5789 5784 5783 5781 5780 5781
5751 5755 5759 5762 5765 5769 5773 5777 5780 5782 5784 5785 5786 5787 5788 5832 5836 5835 5834 5830 5834 5832 5826 5826 5821 5805 5795 5801 5794 5783 5784 5761 5791 5799 5801 5792 5759 5785 5787 5780 5773 5779 5784 5782 5782
5750 5754 5758 5761 5765 5769 5774 5779 5783 5785 5784 5784 5783 5785 5790 5834 5825 5836 5835 5823 5826 5826 5825 5827 5817 5796 5791 5774 5758 5761 5749 5759 5771 5795 5793 5784 5768 5772 5782 5780 5777 5777 5784 5784 5787
5749 5753 5756 5759 5763 5767 5774 5780 5782 5783 5782 5782 5786 5778 5809 5817 5830 5833 5835 5828 5816 5814 5809 5806 5785 5771 5761 5752 5729 5746 5745 5758 5755 5784 5788 5777 5772 5772 5783 5786 5793 5793 5793 5787 5789
5748 5751 5754 5758 5760 5763 5771 5776 5774 5774 5780 5789 5794 5796 5810 5827 5836 5828 5831 5818 5811 5801 5777 5786 5764 5748 5760 5765 5768 5762 5753 5748 5773 5790 5778 5773 5774 5772 5783 5786 5790 5790 5791 5790 5793
5746 5749 5752 5755 5757 5758 5759 5770 5787 5793 5779 5800 5801 5801 5813 5819 5803 5820 5829 5801 5792 5772 5779 5766 5750 5777 5780 5776 5767 5759 5751 5753 5775 5795 5788 5775 5776 5784 5782 5789 5788 5787 5789 5791 5787
5745 5749 5752 5754 5756 5756 5760 5776 5794 5796 5772 5794 5801 5802 5809 5813 5800 5805 5818 5803 5789 5774 5771 5755 5777 5791 5779 5772 5763 5761 5753 5762 5773 5787 5783 5771 5758 5766 5780 5785 5787 5782 5786 5790 5790
5747 5750 5753 5755 5754 5762 5769 5787 5791 5788 5746 5779 5795 5809 5814 5813 5799 5825 5824 5808 5791 5775 5768 5767 5790 5783 5774 5767 5773 5746 5785 5783 5788 5767 5738 5769 5722 5760 5773 5774 5781 5784 5782 5786 5786
5749 5752 5753 5753 5755 5763 5784 5786 5790 5784 5728 5793 5795 5830 5817 5802 5811 5810 5826 5809 5782 5782 5775 5769 5783 5780 5770 5774 5780 5767 5791 5785 5775 5760 5754 5756 5734 5758 5772 5775 5785 5794 5788 5791 5788
5751 5754 5755 5754 5755 5776 5785 5786 5782 5738 5736 5782 5801 5793 5792 5800 5803 5808 5805 5813 5806 5785 5782 5779 5799 5795 5789 5800 5794 5793 5777 5763 5753 5743 5733 5752 5741 5755 5768 5783 5791 5798 5798 5797 5795
5756 5759 5758 5763 5774 5784 5784 5777 5733 5730 5781 5779 5783 5790 5787 5783 5791 5793 5781 5777 5765 5752 5752 5773 5784 5803 5808 5789 5796 5777 5749 5717 5723 5708 5716 5740 5745 5767 5792 5800 5800 5803 5801 5804 5802
5763 5765 5765 5771 5779 5782 5781 5751 5733 5760 5764 5796 5791 5782 5773 5780 5781 5785 5774 5762 5776 5768 5741 5744 5746 5793 5805 5794 5784 5773 5757 5718 5712 5705 5729 5740 5736 5775 5805 5808 5813 5817 5815 5812 5809
5764 5764 5766 5780 5780 5774 5761 5722 5738 5754 5781 5783 5785 5768 5770 5782 5782 5779 5768 5767 5776 5772 5749 5735 5748 5800 5807 5812 5801 5774 5756 5769 5735 5725 5718 5733 5761 5795 5797 5795 5806 5812 5813 5812 5814
5765 5769 5773 5784 5782 5772 5742 5728 5747 5771 5785 5786 5765 5775 5760 5766 5772 5768 5767 5787 5784 5788 5791 5771 5745 5796 5810 5816 5809 5793 5786 5748 5728 5726 5724 5732 5740 5740 5770 5779 5803 5802 5806 5811 5813
5768 5764 5779 5783 5781 5754 5729 5735 5761 5789 5794 5782 5770 5768 5766 5762 5764 5765 5774 5791 5791 5794 5791 5772 5761 5776 5801 5787 5778 5773 5762 5751 5742 5725 5713 5709 5730 5766 5763 5779 5797 5796 5803 5812 5811
5761 5748 5775 5778 5743 5725 5735 5753 5775 5782 5793 5790 5784 5775 5770 5771 5767 5768 5768 5780 5791 5793 5776 5778 5753 5749 5773 5791 5794 5790 5775 5753 5724 5731 5717 5711 5728 5780 5778 5788 5799 5796 5801 5800 5807
5745 5745 5771 5771 5726 5729 5746 5759 5773 5772 5775 5780 5768 5774 5776 5763 5757 5764 5763 5784 5783 5779 5774 5782 5750 5732 5752 5764 5781 5776 5777 5755 5739 5728 5723 5713 5731 5782 5781 5797 5806 5804 5803 5799 5804
5743 5735 5742 5746 5737 5740 5737 5746 5756 5777 5770 5771 5764 5768 5759 5746 5750 5750 5753 5773 5776 5774 5780 5778 5748 5747 5727 5749 5762 5760 5767 5762 5745 5720 5723 5722 5749 5771 5784 5789 5808 5810 5807 5807 5800
5731 5717 5719 5718 5729 5727 5735 5742 5747 5747 5763 5760 5753 5751 5747 5735 5735 5738 5746 5749 5764 5764 5764 5756 5738 5749 5757 5757 5765 5766 5763 5757 5749 5748 5739 5748 5741 5767 5779 5786 5795 5808 5809 5805 5808
5713 5708 5710 5712 5717 5728 5725 5728 5734 5743 5748 5741 5740 5747 5747 5738 5737 5731 5737 5737 5736 5747 5745 5738 5727 5730 5736 5753 5750 5757 5762 5760 5757 5748 5751 5751 5745 5773 5786 5789 5792 5803 5806 5805 5810
5703 5705 5704 5705 5710 5716 5716 5722 5730 5733 5744 5748 5742 5737 5733 5742 5748 5748 5746 5745 5744 5738 5728 5725 5718 5709 5703 5727 5737 5728 5747 5756 5754 5746 5747 5730 5748 5762 5767 5774 5784 5793 5796 5796 5801